Main page
METAR-TAF:

METAR-TAF

Airports :

Valley, Wales

RAF Valley

latitude: 53-15N, longitude: 004-32W, elevation: 1 m

Current weather observation

The report was made 38 minutes ago, at 01:50 UTC
Wind 6 kt from the West/Southwest
Temperature 7°C
Humidity 93%
Pressure 1022 hPa
Visibility 10 km or more

METAR: EGOV 170150Z AUTO 24006KT 9999 BKN014/// 07/06 Q1022

Time: 02:28 (02:28 UTC)


TAF: missing

Weather observations and forecasts of more than 4000 airports (METAR and TAF reports).

The available stations are represented by yellow and red dots on the map.

Hover mouse over dot to see the name of the station.

Then click to see weather observations and forecasts.

To change the map : click on the green buttons with a black cross to zoom in, on the green button with a dash to zoom out, or on the green arrows for adjacent maps.


METAR-TAF: